sat.trackr.live / text

‹ back to catalog

STARLINK-32774

NORAD 62737 · 2025-014C

PAYLOAD ACTIVE UNKNOWN

§ Identity

Operator
Country
US
Launch date
2025-01-21
Launch site
AFETR
Launch vehicle
Mass (kg)
RCS (m²)

Purposes: comms

External: N2YO · Heavens-Above · Gunter

§ Orbital elements

Epoch: 2026-09-20T00:59:38.832288Z

Period
94.27 min
Inclination
43.0004°
Eccentricity
0.0000675
Mean motion
15.27595540 rev/d
Perigee alt
482.5 km
Apogee alt
483.5 km
Semi-major
6,861.1 km
B*
4.2264e-4
RAAN
140.0251°
Arg perigee
254.3116°
Mean anomaly
105.7662°
Rev number
9,294

§ Raw data

STARLINK-327741 62737U 25014C   26263.04142167  .00011391  00000+0  42264-3 0  99962 62737  43.0004 140.0251 0000675 254.3116 105.7662 15.27595540 92945

JSON: /api/v1/satellites/62737 · /tle

For live sub-satellite position, see the globe view (requires WebGL).

§ Visibility from observer

Set your observer location to see the next 7 days of passes ≥ 10°. The values pass through the URL so the page stays shareable.

No JS? Fill the form by hand. The geolocation button needs JavaScript.